Regional Weather Roundup
Issued by NWS San Angelo, TX

Home | Current Version | Previous Version | Text Only | Print | Product List | Glossary On
Versions: 1 2 3 4 5 6 7 8 9 10 11 12 13 14 15 16 17 18 19 20 21 22 23 24 25 26 27 28 29 30 31 32 33 34 35 36 37 38 39 40 41 42 43 44 45 46 47 48 49 50
000
ASUS44 KSJT 270302
RWRSJT
WEST CENTRAL TEXAS REGIONAL WEATHER ROUNDUP
NATIONAL WEATHER SERVICE SAN ANGELO TX
1000 PM CDT FRI AUG 26 2016

NOTE: "FAIR" INDICATES FEW OR NO CLOUDS BELOW 12,000 FEET WITH NO
SIGNIFICANT WEATHER AND/OR OBSTRUCTIONS TO VISIBILITY.

TXZ049-054-064>066-071>073-076>078-098-099-113-114-127-128-139-140-
154-155-168>170-270400
...LOCATIONS ACROSS WEST CENTRAL TEXAS...

CITY           SKY/WX    TMP DP  RH WIND       PRES   REMARKS
SAN ANGELO     MOCLDY    73  68  84 S7        30.04R
ABILENE        MOCLDY    76  69  79 W12G17    30.05R
DYESS AFB      CLOUDY    77  68  73 S5        30.02R
JUNCTION       PTCLDY    84  64  50 S7        30.03R
SWEETWATER     CLOUDY    74  69  85 CALM      30.07F
BROWNWOOD      PTCLDY    77  70  78 SE14      30.03R
COLEMAN        CLEAR     79  65  62 SE5       30.04R
SONORA         MOCLDY    73  70  88 E5        30.10R
OZONA          FAIR      77  63  61 CALM      30.09S
BRADY          NOT AVBL
$$

TEXAS PANHANDLE/OKLAHOMA PANHANDLE

CITY           SKY/WX    TMP DP  RH WIND       PRES   REMARKS
AMARILLO       CLOUDY    72  61  68 SW15      30.13R
BORGER         TSTM      70  63  78 SW13G31   30.11R
CANADIAN       CLEAR     75  66  73 S7        30.04R
DALHART        CLOUDY    65  56  72 S8        30.10R
DUMAS          CLOUDY    62  58  86 SE8       30.09R
GUYMON         NOT AVBL
HEREFORD       TSTM      65  60  84 N12G28    30.14R
PAMPA          NOT AVBL
PERRYTON       CLEAR     74  66  76 S12       30.04R
$$

SOUTHERN PANHANDLE/SOUTH PLAINS/ROLLING PLAINS

CITY           SKY/WX    TMP DP  RH WIND       PRES   REMARKS
LUBBOCK        CLEAR     70  63  78 S8        30.08R
SNYDER           N/A     73  67  82 E3        30.07R
CHILDRESS      PTCLDY    77  65  66 SE7       30.03R
SEMINOLE       CLOUDY    68  65  88 CALM      30.11R
$$

PERMIAN BASIN

CITY           SKY/WX    TMP DP  RH WIND       PRES   REMARKS
MIDLAND        CLOUDY    74  64  71 SE7       30.07R
ODESSA         CLOUDY    74  64  71 SE6       30.09R
WINK           CLOUDY    76  64  66 SE10      30.04R
$$

FAR WEST/SOUTHWEST MOUNTAINS/TRANS PECOS

CITY           SKY/WX    TMP DP  RH WIND       PRES   REMARKS
ALPINE         CLOUDY    68  59  72 SE9       30.22R
DRYDEN           N/A     71  66  84 S6        30.06R
EL PASO        PTCLDY    81  54  39 N15       30.06R
FORT STOCKTON  CLEAR     70  63  78 S14       30.07R
GUADALUPE PASS CLOUDY    65  58  78 NE18      30.20R
MARFA          CLOUDY   N/A N/A N/A E5        30.18R
PECOS          CLOUDY    74  64  70 SE7       30.04R
$$

DALLAS/FORT WORTH METROPLEX

CITY           SKY/WX    TMP DP  RH WIND       PRES   REMARKS
DFW AIRPORT    CLOUDY    79  68  69 SE8       30.00F
FTW MEACHAM    CLOUDY    81  71  71 SE14      30.00F
DAL-EXECUTIVE  CLOUDY    76  70  82 SE8       30.01F
GRAND PRAIRIE  CLOUDY    77  69  74 SE6       30.03S
ADDISON        CLEAR     77  68  73 SE9       30.01F
MESQUITE       PTCLDY    73  71  93 SE5       30.01S
LANCASTER      MOCLDY    75  69  81 CALM      30.03S
$$

NORTH CENTRAL TEXAS

CITY           SKY/WX    TMP DP  RH WIND       PRES   REMARKS
SHRMAN/DENISON NOT AVBL
GAINESVILLE      N/A     73  68  84 SE3       30.05R
BRIDGEPORT     CLOUDY    79  72  79 SE6       30.02S
DENTON         CLOUDY    77  69  76 SE7       30.00S
WAXAHACHIE     MOCLDY    75  74  97 E6        30.03F
GRANBURY       NOT AVBL
$$

WESTERN NORTH TEXAS

CITY           SKY/WX    TMP DP  RH WIND       PRES   REMARKS
WICHITA FALLS  PTCLDY    80  72  76 S13       30.00R
VERNON         CLOUDY    82  61  49 S16       30.02R
BRECKENRIDGE   NOT AVBL
COMANCHE       PTCLDY    76  70  82 SE10      30.04R
$$

CENTRAL AND SOUTH CENTRAL TEXAS

CITY           SKY/WX    TMP DP  RH WIND       PRES   REMARKS
AUSTIN/BERGSTM PTCLDY    78  74  87 NE5       30.03R
WACO           MOCLDY    76  74  93 E3        30.02S
HILLSBORO      MOCLDY    75  72  89 SE5       30.03S
TEMPLE         CLOUDY    77  73  87 E6        30.04R
KILLEEN-GRAY   CLOUDY    75  72  88 E8        30.03R
FORT HOOD      CLOUDY    73  71  94 SE9       30.02R
GEORGETOWN     CLOUDY    79  70  73 SE7       30.04S
LAGO VISTA     CLOUDY    77  69  76 N7        30.07R
SAN MARCOS     PTCLDY    77  72  83 NE5       30.05R
NEW BRAUNFELS  CLEAR     77  73  87 N7        30.01R
RANDOLPH AFB   CLEAR     76  75  95 NE5       30.02R
SAN ANTONIO    MOCLDY    79  72  79 E10       30.02R
STINSON        LGT RAIN  81  72  74 E8        29.98R
PLEASANTON     NOT AVBL
LA GRANGE      PTCLDY    78  75  92 CALM      30.00S
GIDDINGS       PTCLDY    75  72  89 CALM      30.05F
$$

EAST TEXAS

CITY           SKY/WX    TMP DP  RH WIND       PRES   REMARKS
PARIS          CLOUDY    75  70  83 SE8       30.02S
CLARKSVILLE    NOT AVBL
TYLER          LGT RAIN  76  71  85 SW3       30.03R
LONGVIEW       CLOUDY    73  73 100 NE3       30.01S
PALESTINE      PTCLDY    75  75 100 CALM      30.04S
NACOGDOCHES    CLOUDY   N/A N/A N/A CALM      30.01R
$$

TEXAS HILL COUNTRY AND EDWARDS PLATEAU

CITY           SKY/WX    TMP DP  RH WIND       PRES   REMARKS
LLANO          CLOUDY    79  72  78 SE12      30.06R
HORSESHOE BAY  CLOUDY    75  65  72 E8G22     30.05R
KERRVILLE      PTCLDY    77  71  81 E8        30.05R
FREDERICKSBRG  NOT AVBL
ROCKSPRINGS    CLEAR     79  64  61 SE3       30.09R
HONDO          CLEAR     82  72  71 SE13G22   30.00R
UVALDE         CLEAR     76  69  79 E7        30.00R
DEL RIO        PTCLDY    83  67  58 E7        29.96R
$$

SOUTHEAST TEXAS

CITY           SKY/WX    TMP DP  RH WIND       PRES   REMARKS
COLLEGE STN    CLOUDY    77  73  87 NE5       30.02S
CALDWELL       NOT AVBL
CROCKETT       NOT AVBL
BRENHAM        NOT AVBL
HUNTSVILLE     CLOUDY    75  73  93 CALM      30.02S
CONROE         CLOUDY    75  74  96 CALM      30.02R
HOUSTON BUSH   LGT RAIN  76  73  91 N5        30.00R
HOUSTON HOBBY  CLOUDY    78  73  84 CALM      29.99R
PERLAND        CLOUDY    79  75  87 CALM      30.01R
WHARTON        MOCLDY    75  73  94 SW3       30.00F
$$

THE UPPER TEXAS COAST

CITY           SKY/WX    TMP DP  RH WIND       PRES   REMARKS
ORANGE         CLOUDY    76  74  95 CALM      30.00F
PORT ARTHUR    MOCLDY    79  72  79 CALM      29.98S
GALVESTON      PTCLDY    83  76  79 NE6       29.99R
ANGLETON       CLOUDY    78  74  87 N5        29.99R
BAY CITY       PTCLDY    77  75  93 N3        30.00R
$$

TEXAS COASTAL BEND, RIO GRANDE PLAINS DEEP SOUTH TEXAS

CITY           SKY/WX    TMP DP  RH WIND       PRES   REMARKS
VICTORIA       PTCLDY    77  75  93 E6        29.99R
BEEVILLE       FAIR      78  78  99 E5        29.98R
ROCKPORT       CLEAR     84  74  71 E12       29.97R
PORT ARANSAS   PTCLDY    83  76  80 E9        29.96R
PORT LAVACA    CLEAR     80  76  86 E5        29.99R
CORPUS CHRISTI PTCLDY    84  76  76 E9        29.96R
KINGSVILLE NAS NOT AVBL
COTULLA        CLEAR     84  70  62 E12       29.97R
LAREDO         PTCLDY    85  72  65 E14       29.95R
BROWNSVILLE    CLEAR     82  75  79 E7        29.94R
PORT ISABEL    PTCLDY    84  76  76 E10       29.93R
HEBBRONVILLE   CLEAR     81  71  70 E8        29.98R
MCALLEN        CLEAR     86  72  62 E12       29.94R
WESLACO        CLEAR     79  52  37 E7        29.94R
FALFURRIAS     CLEAR     80  73  80 CALM      29.96R
EDINBURG       CLEAR     83  73  71 E6        29.95R
$$



USA.gov is the U.S. government's official web portal to all federal, state and local government web resources and services.